Strona główna
METAR-TAF:

METAR-TAF

Lotnisko :

Río Cuarto, Argentyna

Szerokość geograficzna: 33-07S, Długość geograficzna: 064-14W, wysokość: 420 m

Aktualna obserwacja pogody

Raport powstał 17 minut temu, godzina 18:00 UTC
Wiatr 20 kt od północ w porywach dochodzący do 30 kt
Temperatura 18°C
Wilgotność 22%
Ciśnienie 1022 hPa
Widzialność 10 km lub więcej
Brak chmur poniżej 1500 m i brak chmur cumulonimbus

METAR: SAOC 151800Z 36020G30KT CAVOK 18/M04 Q1022

czas: 15:17 (18:17 UTC)


TAF: brakujący

Obserwacja i prognoza pogody dla ponad 4000 lotnisk (raport METAR i TAF).

Dostępne stacje oznaczono żółtymi i czerwonymi punktami na mapie.

Najedź kursorem aby zobaczyć nazwę stacji.

Kliknij aby zobaczyć obserwacje i prognozy pogody.

Aby zmienić mapę: kliknij na zielony przycisk z czarnym krzyżykiem, aby powiększyć; na zielony przycisk z myślnikiem, aby pomniejszyć; na zielone strzałki, aby przejść do map sąsiednich.


METAR-TAF: